Weather History for Angleton, TX

Change the Weather History Date:

Sunday, January 6, 2013

  Actual Average Record
Temperature  
Mean Temperature 49 °F -  
Max Temperature 59 °F 61 °F 77 °F (2008)
Min Temperature 39 °F 45 °F 26 °F (2014)
Degree Days  
Heating Degree Days 16    
Moisture  
Dew Point 42 °F    
Average Humidity 82    
Maximum Humidity 100    
Minimum Humidity 51    
Precipitation  
Precipitation 0.00 in - - ()
Sea Level Pressure  
Sea Level Pressure 30.28 in    
Wind  
Wind Speed 9 mph (North)    
Max Wind Speed 20 mph    
Max Gust Speed -    
Visibility 8 miles    
Events      
Averages and records for this station are not official NWS values.
T = Trace of Precipitation, MM = Missing Value Source: NWS Daily Summary

Daily Weather History Graph

Daily Weather History Graph

Search for Another Location

Airport:

Trip Planner

Search our weather history database for the weather conditions in past years. The results will help you decide how hot, cold, wet, or windy it might be!

Date:

Astronomy

Jan. 06, 2013 Rise Set
Actual Time 7:16 AM CST 5:39 PM CST
Civil Twilight 6:50 AM CST 6:05 PM CST
Nautical Twilight 6:21 AM CST 6:34 PM CST
Astronomical Twilight 5:52 AM CST 7:03 PM CST
Moon 1:42 AM CST (1/6) 12:58 PM CST (1/6)
Length of Visible Light 11h 14m
Length of Day
10h 22m
Waning Crescent, 33% of the Moon is Illuminated
Jan 6
Waning Crescent
Jan 11
New
Jan 18
First Quarter
Jan 26
Full
Feb 3
Last Quarter

Hourly Weather History & Observations

Time (CST) Temp. Windchill Dew Point Humidity Pressure Visibility Wind Dir Wind Speed Gust Speed Precip Events Conditions
12:53 AM 46.9 °F - 45.0 °F 93% 30.25 in 6.0 mi North 8.1 mph - N/A   Overcast
1:40 AM 46.4 °F 43.5 °F 44.6 °F 93% 30.25 in 8.0 mi North 5.8 mph - N/A   Overcast
1:53 AM 46.9 °F - 45.0 °F 93% 30.26 in 8.0 mi North 8.1 mph - N/A   Overcast
2:53 AM 46.9 °F - 45.0 °F 93% 30.26 in 4.0 mi North 11.5 mph - N/A   Overcast
3:02 AM 46.4 °F 40.7 °F 44.6 °F 93% 30.26 in 4.0 mi North 12.7 mph - N/A   Overcast
3:53 AM 46.0 °F 41.9 °F 45.0 °F 96% 30.26 in 4.0 mi North 8.1 mph - N/A   Overcast
4:37 AM 46.4 °F 41.9 °F 44.6 °F 93% 30.25 in 2.5 mi NNW 9.2 mph - N/A   Overcast
4:53 AM 46.0 °F 41.9 °F 45.0 °F 96% 30.25 in 2.5 mi North 8.1 mph - N/A   Overcast
5:02 AM 44.6 °F 40.2 °F 44.6 °F 100% 30.26 in 1.2 mi North 8.1 mph - N/A   Overcast
5:18 AM 44.6 °F 38.8 °F 44.6 °F 100% 30.25 in 3.0 mi North 11.5 mph - N/A   Overcast
6:53 AM 43.0 °F 37.2 °F 42.1 °F 97% 30.27 in 9.0 mi North 10.4 mph - N/A   Overcast
7:53 AM 43.0 °F 36.8 °F 41.0 °F 93% 30.30 in 9.0 mi North 11.5 mph - N/A   Overcast
8:53 AM 44.1 °F 38.6 °F 41.0 °F 89% 30.33 in 10.0 mi North 10.4 mph - N/A   Mostly Cloudy
9:53 AM 46.9 °F - 42.1 °F 83% 30.35 in 10.0 mi North 13.8 mph - N/A   Partly Cloudy
10:53 AM 52.0 °F - 43.0 °F 71% 30.34 in 10.0 mi North 12.7 mph - N/A   Clear
11:53 AM 54.0 °F - 43.0 °F 66% 30.31 in 10.0 mi NNE 16.1 mph - N/A   Clear
12:53 PM 55.9 °F - 42.1 °F 60% 30.28 in 10.0 mi North 19.6 mph - N/A   Clear
1:53 PM 57.9 °F - 42.1 °F 56% 30.25 in 10.0 mi North 13.8 mph - N/A   Clear
2:53 PM 59.0 °F - 42.1 °F 53% 30.25 in 10.0 mi NNE 15.0 mph - N/A   Clear
3:53 PM 59.0 °F - 41.0 °F 51% 30.25 in 10.0 mi North 10.4 mph - N/A   Clear
4:53 PM 57.9 °F - 39.9 °F 51% 30.26 in 10.0 mi NNE 9.2 mph - N/A   Clear
5:53 PM 51.1 °F - 39.9 °F 66% 30.28 in 10.0 mi Calm Calm - N/A   Clear
6:53 PM 43.0 °F 41.3 °F 39.0 °F 86% 30.28 in 10.0 mi NNE 3.5 mph - N/A   Clear
7:53 PM 45.0 °F - 39.0 °F 80% 30.30 in 10.0 mi Calm Calm - N/A   Clear
9:53 PM 39.0 °F 35.7 °F 36.0 °F 89% 30.32 in 10.0 mi NNE 4.6 mph - N/A   Clear
10:53 PM 41.0 °F - 37.0 °F 86% 30.32 in 10.0 mi Calm Calm - N/A   Clear
11:53 PM 39.9 °F 37.8 °F 37.0 °F 89% 30.30 in 10.0 mi NNE 3.5 mph - N/A   Clear